Tracking 35019 objects as of 13-Aug-2026
HD Live streaming from Space Station
objects crossing your sky now

TITAN 3C TRANSTAGE DEB


TITAN 3C TRANSTAGE DEB is no longer on orbit


NORAD ID: 1991
Int'l Code: 1965-082HX
Launch date: October 15, 1965
Source: United States (US)
Launch site: AIR FORCE EASTERN TEST RANGE (AFETR)
Decay date: 1968-02-06

Note: This is SATELLITE DEBRIS
Your satellite tracking list
Your tracking list is empty




NASA's NSSDC Master Catalog

Two Line Element Set (TLE):
1 01991U 65082 HX 68023.09678059  .01008438 +00000-0 +00000-0 0  9998
2 01991 031.5152 346.5366 0000000 000.0000 000.0603 15.78422897123561
Source of the keplerian elements: AFSPC